Location: Lombard
(41.8800°N, 88.0080°W)
Time: 23:45:04
(UTC-05:00)

Transit 2A - Pass Details

Date: 08 February 2023
Orbit: 591 x 964 km, 66.7° (Epoch: 20 March)

Event Time Altitude Azimuth Distance (km) Brightness Sun altitude
Rises 15:53:13 0° 218° (SW) 2,974 10.6 12.9°
Reaches altitude 10° 15:55:25 10° 221° (SW) 2,113 10.3 12.6°
Maximum altitude 16:00:11 64° 303° (WNW) 811 6.5 11.8°
Drops below altitude 10° 16:05:33 10° 25° (NNE) 2,368 8.1 11.0°
Sets 16:08:09 0° 29° (NNE) 3,366 8.8 10.6°
